GW1941 Weather Reports


time (UTC)temp
C
wind
direction
speed
KPH
gust
KPH
rain 1hr
cm
rain 24hr
cm
rain mn
cm
humidity
%
barometer
mb
20260905104020 20 262 0.0 0.0 0.00 0.53 0.53 99 1010.8
20260905103515 20 262 0.0 0.0 0.00 0.53 0.53 99 1010.9
20260905103011 20 287 0.0 0.0 0.00 0.53 0.53 99 1010.8
20260905102507 20 262 0.0 0.0 0.00 0.53 0.53 99 1010.7
20260905102003 20 262 0.0 0.0 0.00 0.53 0.53 99 1010.4
20260905101501 20 264 0.0 0.0 0.00 0.53 0.53 99 1010.7
20260905101000 20 262 0.0 0.0 0.00 0.53 0.53 99 1010.3
20260905100456 20 259 0.0 0.0 0.00 0.53 0.53 99 1010.5
20260905095955 20 270 0.0 0.0 0.00 0.53 0.53 99 1010.4
20260905095450 20 262 0.0 0.0 0.00 0.53 0.53 99 1010.4
20260905094945 20 263 0.0 0.0 0.00 0.53 0.53 99 1010.5
20260905094440 20 271 0.0 0.0 0.00 0.53 0.53 99 1010.4
20260905093939 20 264 0.0 0.0 0.00 0.53 0.53 99 1010.5
20260905093435 20 263 0.0 0.0 0.00 0.53 0.53 99 1010.2
20260905092930 20 262 0.0 0.0 0.00 0.53 0.53 99 1010.4
20260905092426 21 266 0.0 0.0 0.00 0.53 0.53 99 1010.4
20260905091920 21 264 0.0 0.0 0.00 0.53 0.53 99 1010.4
20260905091415 21 264 0.0 0.0 0.00 0.53 0.53 99 1010.2
20260905090914 21 264 0.0 0.0 0.00 0.53 0.53 99 1010.4
20260905090410 21 264 0.0 0.0 0.00 0.53 0.53 99 1010.4
20260905085908 21 264 0.0 0.0 0.00 0.53 0.53 99 1010.3
20260905085403 21 264 0.0 0.0 0.00 0.53 0.53 99 1010.2
20260905084859 21 268 0.0 0.0 0.00 0.53 0.53 99 1010.4
20260905084358 21 264 0.0 0.0 0.00 0.53 0.53 99 1010.2
20260905083853 21 264 0.0 0.0 0.00 0.53 0.53 99 1010.4
20260905083348 21 265 0.0 0.0 0.00 0.53 0.53 99 1010.2
20260905082844 21 264 0.0 0.0 0.00 0.53 0.53 99 1010.2
20260905082340 21 264 0.0 0.0 0.00 0.53 0.53 99 1010.4
20260905081835 21 263 0.0 0.0 0.00 0.53 0.53 99 1010.2
20260905081330 21 264 0.0 0.0 0.00 0.53 0.53 99 1010.4
20260905080829 21 264 0.0 0.0 0.00 0.53 0.53 99 1010.6
20260905080324 21 264 0.0 0.0 0.00 0.53 0.53 99 1010.3
20260905075822 21 263 0.0 0.0 0.00 0.53 0.53 99 1010.2
20260905075322 21 263 0.0 0.0 0.00 0.53 0.53 99 1010.3
20260905074821 21 264 0.0 0.0 0.00 0.53 0.53 99 1010.3
20260905074317 21 264 0.0 0.0 0.00 0.53 0.53 99 1010.3
20260905073812 21 263 0.0 0.0 0.00 0.53 0.53 99 1010.4
20260905073307 21 264 0.0 0.0 0.00 0.53 0.53 99 1010.3
20260905072802 21 264 0.0 0.0 0.00 0.53 0.53 99 1010.2
20260905072257 21 264 0.0 0.0 0.00 0.53 0.53 99 1010.5
20260905071754 21 264 0.0 0.0 0.00 0.53 0.53 99 1010.7
20260905071249 21 264 0.0 0.0 0.00 0.53 0.53 99 1010.7
20260905070744 21 262 0.0 0.0 0.00 0.53 0.53 98 1010.7
20260905070241 21 264 0.0 0.0 0.00 0.53 0.53 98 1010.7
20260905065739 21 264 0.0 0.0 0.00 0.53 0.53 98 1011.0
20260905065239 21 262 0.0 0.0 0.00 0.53 0.53 98 1010.8
20260905064734 22 262 0.0 0.0 0.00 0.53 0.53 98 1010.8
20260905064229 22 262 0.0 0.0 0.00 0.53 0.53 98 1010.9
20260905063728 22 264 0.0 0.0 0.00 0.53 0.53 98 1011.1
20260905063224 22 264 0.0 0.0 0.00 0.53 0.53 98 1011.3
20260905062720 22 264 0.0 0.0 0.13 0.53 0.53 98 1011.1
20260905062214 22 262 0.0 0.0 0.30 0.53 0.53 98 1011.1
20260905061713 22 262 0.0 0.0 0.30 0.51 0.51 98 1010.9
20260905061208 22 268 0.0 0.0 0.13 0.48 0.48 98 1011.2
20260905060703 22 265 0.0 0.0 0.00 0.46 0.46 97 1011.2
20260905060200 21 264 0.0 0.0 0.00 0.46 0.46 97 1011.3
20260905055658 21 272 0.0 0.0 0.00 0.46 0.46 97 1011.6
20260905055154 22 263 0.0 0.0 0.00 0.46 0.46 97 1011.4
20260905054649 22 251 0.0 1.6 0.97 0.46 0.46 97 1011.3
20260905054145 22 258 1.6 1.6 2.16 0.46 0.46 96 1011.4
20260905053644 23 128 4.8 8.0 1.55 0.28 0.28 95 1011.7
20260905053139 23 261 1.6 3.2 0.61 0.10 0.10 94 1011.5
20260905052638 25 264 3.2 3.2 0.13 0.03 0.03 91 1011.5
20260905052128 25 260 0.0 0.0 0.00 0.00 0.00 88 1011.6
20260905051623 25 269 1.6 1.6 0.00 0.00 0.00 88 1011.5
20260905051120 24 162 3.2 4.8 0.00 0.00 0.00 89 1011.3
20260905050616 24 258 0.0 0.0 0.00 0.00 0.00 90 1011.4
20260905050113 24 251 0.0 0.0 0.00 0.00 0.00 90 1011.3
20260905045612 24 262 0.0 0.0 0.00 0.00 0.00 90 1011.3
20260905045108 24 262 0.0 0.0 0.00 0.00 0.00 89 1011.3
20260905044608 24 262 0.0 0.0 0.00 0.00 0.00 89 1011.3
20260905044102 24 264 0.0 0.0 0.00 0.00 0.00 88 1011.2
20260905043601 24 266 0.0 0.0 0.00 0.00 0.00 88 1011.5
20260905043057 25 263 0.0 0.0 0.00 0.00 0.00 88 1011.5
20260905042555 25 262 0.0 0.0 0.00 0.00 0.00 88 1011.3
20260905042051 25 262 0.0 0.0 0.00 0.00 0.00 87 1011.3
20260905041546 25 261 0.0 0.0 0.00 0.00 0.00 87 1011.5
20260905041042 25 263 0.0 0.0 0.00 0.00 0.00 87 1011.4
20260905040541 25 262 0.0 0.0 0.00 0.00 0.00 87 1011.2
20260905040040 25 262 0.0 0.0 0.00 0.00 0.00 88 1011.7
20260905035535 24 262 0.0 0.0 0.00 0.00 0.00 88 1011.6
20260905035032 25 264 0.0 0.0 0.00 0.00 0.00 88 1011.7
20260905034527 25 263 0.0 0.0 0.00 0.00 0.00 88 1011.6
20260905034027 25 263 0.0 0.0 0.00 0.00 0.00 87 1011.7
20260905033521 25 264 0.0 0.0 0.00 0.00 0.00 87 1011.6
20260905033017 25 264 0.0 0.0 0.00 0.00 0.00 87 1011.7
20260905032511 24 265 0.0 0.0 0.00 0.00 0.00 87 1011.7
20260905032007 25 262 0.0 0.0 0.00 0.00 0.00 88 1011.7
20260905031502 25 263 0.0 0.0 0.00 0.00 0.00 88 1011.7
20260905030957 25 262 0.0 0.0 0.00 0.00 0.00 88 1011.7
20260905030453 25 262 0.0 0.0 0.00 0.00 0.00 87 1011.7
20260905025951 25 262 0.0 0.0 0.00 0.00 0.00 87 1011.8
20260905025447 25 262 0.0 0.0 0.00 0.00 0.00 87 1011.6
20260905024944 25 262 0.0 0.0 0.00 0.00 0.00 87 1011.4
20260905024443 25 262 0.0 0.0 0.00 0.00 0.00 87 1011.7
20260905023933 25 262 0.0 0.0 0.00 0.00 0.00 86 1011.6
20260905023428 25 262 0.0 0.0 0.00 0.00 0.00 86 1011.6
20260905022927 25 262 0.0 0.0 0.00 0.00 0.00 86 1011.5
20260905022423 25 261 0.0 0.0 0.00 0.00 0.00 86 1011.3
20260905021918 25 261 0.0 0.0 0.00 0.00 0.00 86 1011.4
20260905021417 25 262 0.0 0.0 0.00 0.00 0.00 85 1011.4
20260905020913 25 261 0.0 0.0 0.00 0.00 0.00 85 1011.5
20260905020407 25 260 0.0 0.0 0.00 0.00 0.00 85 1011.5
20260905015906 25 262 0.0 0.0 0.00 0.00 0.00 85 1011.4
20260905015405 25 261 0.0 0.0 0.00 0.00 0.00 85 1011.7
20260905014904 25 261 0.0 0.0 0.00 0.00 0.00 84 1011.5
20260905014400 25 260 0.0 0.0 0.00 0.00 0.00 84 1011.7
20260905013855 25 263 0.0 0.0 0.00 0.00 0.00 84 1011.6
20260905013351 25 262 0.0 0.0 0.00 0.00 0.00 84 1011.6
20260905012846 25 259 0.0 0.0 0.00 0.00 0.00 83 1011.3
20260905012342 25 254 0.0 0.0 0.00 0.00 0.00 83 1011.6
20260905011839 25 261 0.0 0.0 0.00 0.00 0.00 82 1011.6
20260905011334 25 261 0.0 0.0 0.00 0.00 0.00 83 1011.5
20260905010829 25 261 0.0 0.0 0.00 0.00 0.00 83 1011.5
20260905010324 25 261 0.0 0.0 0.00 0.00 0.00 83 1011.5
20260905005820 25 257 0.0 0.0 0.00 0.00 0.00 82 1011.6
20260905005316 25 258 0.0 0.0 0.00 0.00 0.00 82 1011.5
20260905004810 25 257 0.0 1.6 0.00 0.00 0.00 82 1011.5
20260905004305 25 259 0.0 0.0 0.00 0.00 0.00 83 1011.5
20260905003800 25 261 0.0 0.0 0.00 0.00 0.00 83 1011.2
20260905003256 25 260 0.0 0.0 0.00 0.00 0.00 83 1011.5
20260905002752 25 261 0.0 0.0 0.00 0.00 0.00 83 1011.2
20260905002251 25 260 0.0 0.0 0.00 0.00 0.00 82 1011.1
20260905001746 25 258 0.0 0.0 0.00 0.00 0.00 82 1011.0
20260905001246 26 262 0.0 0.0 0.00 0.00 0.00 81 1011.0
20260905000741 26 264 0.0 0.0 0.00 0.00 0.00 81 1011.2
20260905000237 26 262 0.0 0.0 0.00 0.00 0.00 81 1011.1
20260904235732 26 262 0.0 0.0 0.00 0.00 0.00 80 1010.9
20260904235226 26 261 0.0 0.0 0.00 0.00 0.00 80 1011.1
20260904234721 26 262 0.0 0.0 0.00 0.00 0.00 79 1011.1
20260904234217 26 262 0.0 0.0 0.00 0.00 0.00 79 1011.2
20260904233712 26 262 0.0 0.0 0.00 0.00 0.00 79 1011.1
20260904233208 26 265 0.0 0.0 0.00 0.00 0.00 78 1011.1
20260904232705 26 261 0.0 0.0 0.00 0.00 0.00 78 1011.3
20260904232201 27 267 0.0 0.0 0.00 0.00 0.00 78 1011.1
20260904231656 27 262 0.0 0.0 0.00 0.00 0.00 78 1011.1
20260904231150 27 264 0.0 0.0 0.00 0.00 0.00 78 1011.4
20260904230650 27 259 0.0 0.0 0.00 0.00 0.00 78 1011.5
20260904230140 27 259 0.0 0.0 0.00 0.00 0.00 78 1011.4
20260904225638 27 248 0.0 0.0 0.00 0.00 0.00 78 1011.4
20260904225133 27 261 0.0 0.0 0.00 0.00 0.00 78 1011.4
20260904224627 27 261 0.0 0.0 0.00 0.00 0.00 78 1011.4
20260904224122 27 253 0.0 0.0 0.00 0.00 0.00 78 1011.3
20260904223621 27 259 0.0 0.0 0.00 0.00 0.00 78 1011.3
20260904223116 27 250 0.0 0.0 0.00 0.00 0.00 77 1011.3
20260904222612 27 261 0.0 0.0 0.00 0.00 0.00 77 1011.5
20260904222102 27 259 0.0 0.0 0.00 0.00 0.00 77 1011.4
20260904221602 27 260 0.0 0.0 0.00 0.00 0.00 77 1011.3
20260904221101 27 261 0.0 0.0 0.00 0.00 0.00 76 1011.2
20260904220556 28 258 0.0 0.0 0.00 0.00 0.00 76 1011.3
20260904220052 28 258 0.0 0.0 0.00 0.00 0.00 75 1011.1
20260904215552 28 261 0.0 0.0 0.00 0.00 0.00 74 1011.3
20260904215047 28 267 0.0 0.0 0.00 0.00 0.00 71 1011.5
20260904214542 28 264 0.0 0.0 0.00 0.00 0.00 71 1011.5
20260904214033 28 261 0.0 0.0 0.00 0.00 0.00 70 1011.3
20260904213531 29 262 0.0 0.0 0.00 0.00 0.00 70 1011.5
20260904213028 29 278 1.6 3.2 0.00 0.00 0.00 67 1011.1
20260904212526 30 282 1.6 3.2 0.00 0.00 0.00 69 1011.2
20260904212021 29 267 1.6 1.6 0.00 0.00 0.00 71 1011.3
20260904211516 29 257 0.0 0.0 0.00 0.00 0.00 70 1011.3
20260904211012 29 258 0.0 0.0 0.00 0.00 0.00 70 1011.2
20260904210511 29 259 0.0 0.0 0.00 0.00 0.00 71 1011.4
20260904210007 30 250 0.0 0.0 0.00 0.00 0.00 69 1011.3
20260904205502 30 263 1.6 3.2 0.00 0.00 0.00 66 1011.3
20260904204959 30 259 0.0 1.6 0.00 0.00 0.00 67 1011.3
20260904204454 30 258 0.0 0.0 0.00 0.00 0.00 67 1011.4
20260904203950 30 267 1.6 1.6 0.00 0.00 0.00 66 1011.2
20260904203446 30 260 0.0 0.0 0.00 0.00 0.00 67 1011.6
20260904202942 29 262 0.0 0.0 0.00 0.00 0.00 66 1011.3
20260904202438 30 261 1.6 1.6 0.00 0.00 0.00 65 1011.3
20260904201934 30 255 1.6 3.2 0.00 0.00 0.00 64 1011.3
20260904201429 30 263 0.0 0.0 0.00 0.00 0.00 64 1011.4
20260904200925 30 297 0.0 1.6 0.00 0.00 0.00 63 1011.3
20260904200422 30 323 4.8 4.8 0.00 0.00 0.00 62 1011.8
20260904195918 30 256 1.6 1.6 0.00 0.00 0.00 66 1011.5
20260904195416 30 267 0.0 1.6 0.00 0.00 0.00 65 1011.8
20260904194915 30 261 1.6 3.2 0.00 0.00 0.00 65 1011.8
20260904194410 30 272 0.0 0.0 0.00 0.00 0.00 64 1011.8
20260904193905 30 272 4.8 4.8 0.00 0.00 0.00 63 1011.7
20260904193400 30 243 3.2 4.8 0.00 0.00 0.00 63 1011.8
20260904192856 31 257 3.2 4.8 0.00 0.00 0.00 62 1012.2
20260904192351 31 254 1.6 1.6 0.00 0.00 0.00 65 1012.3
20260904191848 30 260 1.6 1.6 0.00 0.00 0.00 65 1012.2
20260904191344 30 260 3.2 4.8 0.00 0.00 0.00 64 1012.2
20260904190840 30 263 0.0 0.0 0.00 0.00 0.00 64 1012.0
20260904190335 31 260 0.0 1.6 0.00 0.00 0.00 62 1012.4
20260904185832 31 270 0.0 1.6 0.00 0.00 0.00 63 1012.2
20260904185327 31 254 3.2 3.2 0.00 0.00 0.00 62 1012.6
20260904184826 30 260 1.6 1.6 0.00 0.00 0.00 64 1012.1
20260904184322 31 274 3.2 3.2 0.00 0.00 0.00 59 1012.3
20260904183817 32 287 3.2 4.8 0.00 0.00 0.00 58 1012.4
20260904183312 32 258 1.6 1.6 0.00 0.00 0.00 62 1012.3
20260904182807 31 285 1.6 3.2 0.00 0.00 0.00 58 1012.5
20260904182306 32 359 3.2 8.0 0.00 0.00 0.00 59 1012.3
20260904181758 33 257 1.6 1.6 0.00 0.00 0.00 58 1012.6
20260904181257 32 261 3.2 4.8 0.00 0.00 0.00 60 1012.4
20260904180753 32 271 1.6 3.2 0.00 0.00 0.00 57 1012.5
20260904180248 32 267 1.6 1.6 0.00 0.00 0.00 56 1012.2
20260904175747 31 256 1.6 3.2 0.00 0.00 0.00 58 1012.4
20260904175245 31 265 1.6 3.2 0.00 0.00 0.00 60 1012.5
20260904174740 32 247 1.6 1.6 0.00 0.00 0.00 60 1012.7
20260904174237 32 310 3.2 4.8 0.00 0.00 0.00 61 1012.8
20260904173733 32 253 1.6 1.6 0.00 0.00 0.00 62 1012.6
20260904173232 32 295 6.4 8.0 0.00 0.00 0.00 60 1012.6
20260904172729 32 259 0.0 0.0 0.00 0.00 0.00 62 1012.8
20260904172227 31 252 0.0 1.6 0.00 0.00 0.00 63 1012.7
20260904171723 31 258 1.6 1.6 0.00 0.00 0.00 63 1012.5
20260904171218 31 248 1.6 1.6 0.00 0.00 0.00 61 1012.4
20260904170715 32 258 1.6 3.2 0.00 0.00 0.00 62 1012.5
20260904170210 32 270 6.4 9.7 0.00 0.00 0.00 59 1012.4
20260904165708 32 272 3.2 4.8 0.00 0.00 0.00 61 1012.6
20260904165203 31 257 3.2 3.2 0.00 0.00 0.00 62 1012.3
20260904164657 31 279 4.8 4.8 0.00 0.00 0.00 61 1012.4
20260904164152 31 257 4.8 8.0 0.00 0.00 0.00 64 1012.4
20260904163649 31 264 1.6 3.2 0.00 0.00 0.00 64 1012.4
20260904163144 31 261 0.0 1.6 0.00 0.00 0.00 64 1012.5
20260904162643 31 308 8.0 12.9 0.00 0.00 0.00 61 1012.7
20260904162138 31 266 0.0 1.6 0.00 0.00 0.00 66 1012.7
20260904161633 31 246 6.4 8.0 0.00 0.00 0.00 63 1012.7
20260904161128 31 270 1.6 1.6 0.00 0.00 0.00 63 1012.8
20260904160624 31 263 0.0 0.0 0.00 0.00 0.00 67 1012.7
20260904160120 30 287 6.4 9.7 0.00 0.00 0.00 64 1012.9
20260904155620 30 261 3.2 3.2 0.00 0.00 0.00 65 1012.8
20260904155114 30 265 1.6 3.2 0.00 0.00 0.00 68 1012.9
20260904154608 30 291 4.8 4.8 0.00 0.00 0.00 67 1013.1
20260904154103 30 260 0.0 1.6 0.00 0.00 0.00 69 1013.0
20260904153602 30 263 3.2 4.8 0.00 0.00 0.00 67 1012.8
20260904153059 30 256 8.0 11.3 0.00 0.00 0.00 66 1012.7
20260904152554 30 305 8.0 12.9 0.00 0.00 0.00 67 1013.1
20260904152049 30 264 0.0 0.0 0.00 0.00 0.00 68 1012.9
20260904151544 30 338 3.2 4.8 0.00 0.00 0.00 68 1012.9
20260904151043 30 289 8.0 9.7 0.00 0.00 0.00 68 1013.0
20260904150538 30 302 3.2 4.8 0.00 0.00 0.00 69 1012.8
20260904150033 30 312 6.4 11.3 0.00 0.00 0.00 69 1012.9
20260904145532 30 333 4.8 8.0 0.00 0.00 0.00 68 1012.8
20260904145027 29 317 11.3 14.5 0.00 0.00 0.00 70 1012.7
20260904144524 28 328 12.9 14.5 0.00 0.00 0.00 71 1012.7
20260904144020 29 270 1.6 3.2 0.00 0.00 0.00 73 1012.7
20260904143515 29 272 3.2 8.0 0.00 0.00 0.00 72 1012.7
20260904143012 28 260 0.0 0.0 0.00 0.00 0.00 73 1012.8
20260904142508 28 304 9.7 11.3 0.00 0.00 0.00 72 1013.1
20260904142007 28 272 3.2 3.2 0.00 0.00 0.00 73 1012.7
20260904141502 28 283 4.8 4.8 0.00 0.00 0.00 73 1012.6
20260904140958 28 267 11.3 12.9 0.00 0.00 0.00 73 1012.6
20260904140453 28 162 1.6 3.2 0.00 0.00 0.00 73 1012.7
20260904135951 28 266 6.4 9.7 0.00 0.00 0.00 74 1012.9
20260904135446 28 264 3.2 3.2 0.00 0.00 0.00 74 1012.7
20260904134943 27 296 4.8 8.0 0.00 0.00 0.00 75 1012.8
20260904134442 28 280 4.8 4.8 0.00 0.00 0.00 74 1012.7
20260904133937 27 276 6.4 8.0 0.00 0.00 0.00 76 1012.7
20260904133432 28 254 0.0 0.0 0.00 0.00 0.00 75 1012.8
20260904132928 27 263 1.6 3.2 0.00 0.00 0.00 76 1012.5
20260904132423 27 264 6.4 8.0 0.00 0.00 0.00 76 1012.8
20260904131922 27 282 3.2 3.2 0.00 0.00 0.00 77 1012.8
20260904131417 27 276 6.4 9.7 0.00 0.00 0.00 77 1012.4
20260904130913 27 266 0.0 0.0 0.00 0.00 0.00 78 1012.6
20260904130412 27 262 4.8 8.0 0.00 0.00 0.00 78 1012.5
20260904125907 27 260 4.8 4.8 0.00 0.00 0.00 79 1012.4
20260904125404 26 241 4.8 8.0 0.00 0.00 0.00 80 1012.7
20260904124903 26 288 3.2 3.2 0.00 0.00 0.00 80 1012.7
20260904124359 26 268 4.8 8.0 0.00 0.00 0.00 81 1012.7
20260904123854 26 253 1.6 3.2 0.00 0.00 0.00 82 1012.8
20260904123350 26 289 3.2 3.2 0.00 0.00 0.00 82 1012.6
20260904122845 26 26 0.0 4.8 0.00 0.00 0.00 84 1012.6
20260904122344 25 267 0.0 0.0 0.00 0.00 0.00 84 1012.8
20260904121839 25 273 1.6 1.6 0.00 0.00 0.00 84 1012.7
20260904121336 25 254 6.4 11.3 0.00 0.00 0.00 84 1012.7
20260904120832 25 274 3.2 4.8 0.00 0.00 0.00 84 1012.6
20260904120327 25 270 0.0 1.6 0.00 0.00 0.00 87 1012.6
20260904115822 25 266 1.6 1.6 0.00 0.00 0.00 88 1012.6
20260904115318 24 244 0.0 1.6 0.00 0.00 0.00 90 1012.7
20260904114818 23 287 0.0 1.6 0.00 0.00 0.00 91 1012.6
20260904114312 23 260 0.0 0.0 0.00 0.00 0.00 92 1012.8
20260904113807 23 254 0.0 0.0 0.00 0.00 0.00 93 1012.4
20260904113306 23 245 0.0 0.0 0.00 0.00 0.00 94 1012.5
20260904112801 23 271 0.0 0.0 0.00 0.00 0.00 95 1012.4
20260904112257 23 254 0.0 0.0 0.00 0.00 0.00 95 1012.2
20260904111752 23 262 0.0 0.0 0.00 0.00 0.00 95 1012.2
20260904111248 23 258 0.0 0.0 0.00 0.00 0.00 96 1012.2
20260904110744 23 264 0.0 0.0 0.00 0.00 0.00 96 1012.1
20260904110243 23 260 0.0 0.0 0.00 0.00 0.00 97 1012.3
20260904105738 23 256 0.0 0.0 0.00 0.00 0.00 97 1012.1
20260904105233 23 251 0.0 0.0 0.00 0.00 0.00 97 1012.2
20260904104728 23 262 0.0 0.0 0.00 0.00 0.00 97 1012.1